TimeEDT,TemperatureF,Dew PointF,Humidity,Sea Level PressureIn,VisibilityMPH,Wind Direction,Wind SpeedMPH,Gust SpeedMPH,PrecipitationIn,Events,Conditions,WindDirDegrees,DateUTC
12:56 AM,42.1,27.0,55,30.19,10.0,NW,5.8,-,N/A,,Clear,320,2013-04-15 04:56:00
1:56 AM,41.0,28.0,60,30.19,10.0,NNW,5.8,-,N/A,,Clear,330,2013-04-15 05:56:00
2:56 AM,41.0,30.9,67,30.21,10.0,NNW,3.5,-,N/A,,Clear,330,2013-04-15 06:56:00
3:56 AM,37.9,30.9,76,30.23,10.0,North,3.5,-,N/A,,Clear,360,2013-04-15 07:56:00
4:56 AM,39.9,34.0,79,30.24,10.0,North,8.1,-,N/A,,Clear,360,2013-04-15 08:56:00
5:56 AM,41.0,36.0,82,30.27,10.0,North,6.9,-,N/A,,Clear,350,2013-04-15 09:56:00
6:56 AM,43.0,37.0,80,30.31,10.0,North,3.5,-,N/A,,Clear,10,2013-04-15 10:56:00
7:56 AM,45.0,37.0,74,30.34,10.0,NNE,8.1,-,N/A,,Clear,20,2013-04-15 11:56:00
8:56 AM,46.9,37.9,71,30.34,10.0,North,8.1,-,N/A,,Clear,350,2013-04-15 12:56:00
9:56 AM,48.9,39.0,69,30.37,10.0,Variable,4.6,-,N/A,,Clear,0,2013-04-15 13:56:00
10:56 AM,51.1,39.9,66,30.37,10.0,NNE,5.8,-,N/A,,Clear,20,2013-04-15 14:56:00
11:56 AM,51.1,39.0,63,30.37,10.0,NE,3.5,-,N/A,,Clear,40,2013-04-15 15:56:00
12:56 PM,52.0,35.1,53,30.37,10.0,SSW,9.2,-,N/A,,Scattered Clouds,200,2013-04-15 16:56:00
1:56 PM,51.1,34.0,52,30.38,10.0,SSE,8.1,-,N/A,,Partly Cloudy,160,2013-04-15 17:56:00
2:56 PM,50.0,34.0,54,30.37,10.0,South,8.1,-,N/A,,Clear,180,2013-04-15 18:56:00
3:56 PM,50.0,36.0,59,30.36,10.0,South,9.2,-,N/A,,Clear,170,2013-04-15 19:56:00
4:56 PM,48.9,36.0,61,30.35,10.0,South,8.1,-,N/A,,Clear,170,2013-04-15 20:56:00
5:56 PM,48.9,37.0,64,30.35,10.0,SSE,6.9,-,N/A,,Clear,150,2013-04-15 21:56:00
6:56 PM,46.0,37.9,73,30.37,10.0,SE,4.6,-,N/A,,Clear,140,2013-04-15 22:56:00
7:56 PM,44.1,39.0,82,30.38,10.0,Calm,Calm,-,N/A,,Clear,0,2013-04-15 23:56:00
8:56 PM,42.1,37.9,85,30.43,10.0,Calm,Calm,-,N/A,,Clear,0,2013-04-16 00:56:00
9:56 PM,42.1,39.0,89,30.40,10.0,SE,3.5,-,N/A,,Clear,140,2013-04-16 01:56:00
10:56 PM,43.0,41.0,93,30.40,10.0,SSE,4.6,-,N/A,,Clear,150,2013-04-16 02:56:00
11:56 PM,43.0,41.0,93,30.40,10.0,SSE,4.6,-,N/A,,Clear,160,2013-04-16 03:56:00